San Cristobal, Dominican Republic
Current Conditions -  °F | °C
As of 2:00 PM on Sunday 21 Dec 2014 (Local Time) from MDSD Reporting Station
Moderate Rain Moderate Rain  
Wind Chill: 82°   Ceiling: 1800
Heat Index: 89°   Visibility: 5mi
Dew Point: 75°   Wind: 12mph
Humidity: 79%   Direction: 80°E
Pressure: 30"   Gusts: NA
Location:  18.42°N, 70.11°W
Report Text: MDSD 211800Z 08010KT 8000 VCRA BKN018 28/24 Q1016 TEMPO 7000 RA
Loading
Personal Weather Stations






























Interactive Weather Map New forecast layout! Learn more

10-Day Weather Forecast

Advertisements
Track Severe Weather on mobile